Location: Mahannah Oil Field
(37.4664°N, 96.6003°W)
Time: 08:04:09
(UTC+00:00)

Vanguard 3 - Pass Details

Date: 26 January 2021
Orbit: 508 x 3261 km, 33.3° (Epoch: 24 February)

Event Time Altitude Azimuth Distance (km) Brightness Sun altitude
Exits shadow 10:13:38 51° 122° (ESE) 1,592 8.6 -39.8°
Drops below altitude 10° 10:22:17 10° 91° (E) 4,298 11.5 -38.1°
Sets 10:26:50 0° 89° (E) 5,763 12.5 -37.2°
